Terug naar catalogus

COSMOS 970 DEB

ActiefLEO
NORAD 10886·DEBRIS·🇷🇺 Russia

Gelanceerd Dec 21, 1977 vanaf Baikonur Cosmodrome

Loading…

Volgende Passages (komende 24 uur)

TLE

VersSource: Space-Track

Epoch: Sep 13, 2026, 08:58 UTC

1 10886U 77121AH  26256.37401267  .00000212  00000-0  29987-3 0  9995
2 10886  65.8428 123.5635 0098370  81.5508  92.2388 13.73995491432021

Volg COSMOS 970 DEB in realtime met AllMySat

Download on the App Store